Starlink 1734

operational
NORAD ID: 46325 Int'l Des: 2020-062 Owner: SPXS Country: US Constellation: starlink
LEOCIRCULAR

Starlink 1734について

説明を読み込み中...

リアルタイム位置

3D地球を読み込み中...

次回通過

高度履歴

Altitude vs Time

uPlot chart will show altitude changes over time

軌道要素

1 46325U 20062A 25257.58335648 .00107045 00000-0 18498-2 0 9992
2 46325 53.0300 5.7347 0012604 291.1675 301.0036 15.50081385 5894
Epoch: Sep 14, 2025 • Age: 18 hours

現在のステータス

高度 416.7 km
速度 7.66 km/s
衛星直下点 19.88°N, 91.8°W
打ち上げ日 Sep 3, 2020
運用期間 5 years
タイプ internet

技術仕様

分類 Payload
質量 260.00 kg
乾燥質量 248.00 kg
総質量 260.00 kg
長さ 0.20 m
直径 2.80 m
スパン 9.00 m
形状 Box + pan
製造者 SPXS
バスタイプ Starlink
フェーズステータス In Orbit
所有者/国 SPXS/US

大規模コンステレーション

Loading constellations...